Regional Weather Roundup
Issued by NWS Columbia, SC

Home | Current Version | Previous Version | Text Only | Print | Product List | Glossary On
Versions: 1 2 3 4 5 6 7 8 9 10 11 12 13 14 15 16 17 18 19 20 21 22 23 24 25 26 27 28 29 30 31 32 33 34 35 36 37 38 39 40 41 42 43 44 45 46 47 48 49 50
000
ASUS42 KCAE 232010
RWRCAE
REGIONAL WEATHER ROUNDUP
NATIONAL WEATHER SERVICE COLUMBIA SC
400 PM EDT FRI JUN 23 2017

NOTE: "FAIR" INDICATES FEW OR NO CLOUDS BELOW 12,000 FEET WITH NO
SIGNIFICANT WEATHER AND/OR OBSTRUCTIONS TO VISIBILITY.

NOT ALL STATIONS ARE QUALITY CONTROLLED BY THE NATIONAL
WEATHER SERVICE. USE DATA WITH CAUTION...ESPECIALLY
DEWPOINT OBSERVATIONS.

SCZ001>056-GAZ040-063>065-077-232100-
...UPSTATE SOUTH CAROLINA...

CITY           SKY/WX    TMP DP  RH WIND       PRES   REMARKS
ANDERSON       MOSUNNY   88  70  55 SW18G25   29.94F
LIBERTY        PTCLDY    86  70  58 SW13G24   29.93F
SPARTANBURG    MOSUNNY   86  68  54 SW7       29.93F
CLEMSON        MOSUNNY   86  71  60 S9G22     29.94F
GREENVILLE     MOSUNNY   90  69  50 S18G26    29.94F
GREENWOOD      MOSUNNY   89  70  53 S15G22    29.96F
GREER          PTSUNNY   86  69  56 SW20      29.92F
ROCK HILL      MOSUNNY   89  69  51 SW13G25   29.94F
CHESTER        PTCLDY    88  64  45 SW6       29.94F HAZE
LAURENS        PTCLDY    90  70  51 SW16      29.95F HX  95


...CENTRAL SOUTH CAROLINA...

CITY           SKY/WX    TMP DP  RH WIND       PRES   REMARKS
COLUMBIA APT   PTSUNNY   93  69  45 SW12      29.93F HX  98
COLUMBIA OWENS MOSUNNY   94  68  42 SW12G20   29.94F HX  98
MCENTIRE ANGB  MOSUNNY   92  71  49 SW9       29.95F HX  98
ORANGEBURG     SUNNY     91  73  55 SW9       29.96F HX  99
SUMTER SHAW    MOSUNNY   91  73  55 S15       29.93F HX  99
NEWBERRY       PTCLDY    88  72  58 SW13      29.97F
AIKEN          FAIR      90  70  51 SW10G21   29.99F HX  95
BARNWELL       CLOUDY    93  75  55 SW8       29.96F HX 104
MANNING        FAIR      90  72  55 SW25G35   29.96F HX  96
CAMDEN         FAIR      91  70  49 VRB5G13   29.94F HX  97
LANCASTER      PTCLDY    90  72  55 S12       29.94F HX  96
WINNSBORO      CLEAR     90  68  48 SW13      29.95F


...EASTERN AND COASTAL SOUTH CAROLINA...

CITY           SKY/WX    TMP DP  RH WIND       PRES   REMARKS
MYRTLE BEACH   MOSUNNY   86  77  74 S23       29.98F HX  97
N MYRTLE BCH   SUNNY     85  76  74 SW20G28   29.98F
CONWAY         FAIR      90  77  66 SW9       29.96F HX 102
MARION         FAIR      90  73  58 SW10      29.96F HX  98
HARTSVILLE       N/A    N/A N/A N/A MISG        N/A
FLORENCE       MOSUNNY   91  73  55 SW15G23   29.95F HX  99
DARLINGTON     MOSUNNY   90  74  59 S16       29.94F HX  99
CHARLESTON APT MOSUNNY   89  76  65 S15       29.98F HX 100
MOUNT PLEASANT FAIR      86  77  74 S13G22    30.00F HX  97
WALTERBORO     CLOUDY    88  77  70 S10       29.98F HX 100
BEAUFORT       MOSUNNY   86  80  82 S10G18    29.98F HX 101


...EASTERN GEORGIA...

CITY           SKY/WX    TMP DP  RH WIND       PRES   REMARKS
AUGUSTA BUSH F MOSUNNY   95  72  47 W10       29.94F HX 103
AUGUSTA DANIEL MOSUNNY   95  67  39 SW10G21   29.95F HX  99
THOMSON        MOSUNNY   91  73  56 W13G18    30.00F HX  99
WASHINGTON     FAIR      88  73  62 SW8G22    29.96F HX  96
CLAXTON        MOCLDY    87  75  69 CALM      29.97F HX  96
SYLVANIA       TSTM      84  78  82 S3        29.99F
STATESBORO     CLOUDY    85  76  75 CALM      29.98F HX  95
SAVANNAH       PTSUNNY   93  74  53 S14       29.98F HX 103


...SOUTHERN NORTH CAROLINA...

CITY           SKY/WX    TMP DP  RH WIND       PRES   REMARKS
CHARLOTTE      PTSUNNY   87  69  54 SW15      29.93F
MONROE         MOSUNNY   89  69  51 SW16      29.93F
WADESBORO      PTCLDY    91  69  48 S9G17     29.92F HX  95
ROCKINGHAM     CLEAR     91  71  51 SW9G18    29.93F HX  97
ASHEVILLE      SUNNY     85  63  47 S20G25    29.97F

$$



USA.gov is the U.S. government's official web portal to all federal, state and local government web resources and services.